Regional Weather Roundup
Issued by NWS

Home | Current Version | Previous Version | Graphics & Text | Print | Product List | Glossary On
Versions: 1 2 3 4 5 6 7 8 9 10 11 12 13 14 15 16 17 18 19 20 21 22 23 24 25 26 27 28 29 30 31 32 33 34 35 36 37 38 39 40 41 42 43 44 45 46 47 48 49 50
000
ASUS45 KCYS 170210
RWRWY

WYOMING REGIONAL WEATHER ROUNDUP
NATIONAL WEATHER SERVICE CHEYENNE WY
700 PM MST TUE DEC 16 2014

NOTE:  "FAIR" INDICATES FEW OR NO CLOUDS BELOW 12,000 FEET
WITH NO SIGNIFICANT WEATHER AND/OR OBSTRUCTIONS TO VISIBILITY.

WYZ001-170300-
YELLOWSTONE NATIONAL PARK

CITY           SKY/WX    TMP DP  RH WIND       PRES   REMARKS
LK YELLOWSTONE   N/A     17  14  88 CALM      29.96F
W YELLOWSTONE  NOT AVBL

$$
WYZ002>013-054>058-071-098>099-170300-
NORTHERN WYOMING

CITY           SKY/WX    TMP DP  RH WIND       PRES   REMARKS
JACKSON        LGT SNOW  19  18  93 CALM      29.99R
CODY           FAIR      14  10  85 S7        29.95F WCI   4
GREYBULL       FAIR      20  17  88 CALM      30.00F
WORLAND        FAIR       9   6  88 SE5       29.99F WCI   1
SHERIDAN       CLOUDY    20  16  84 CALM      30.02F
BUFFALO          N/A     20  19  96 MISG      29.98S
GILLETTE       FAIR      19  16  88 S17       30.01S WCI   4
HULETT           N/A     19  18  93 MISG        N/A
NEWCASTLE      CLOUDY    21  21 100 S7        30.07F FOG     WCI  13

$$
WYZ014>020-022>026-101>103-170300-
CENTRAL WYOMING

CITY           SKY/WX    TMP DP  RH WIND       PRES   REMARKS
BIG PINEY      CLOUDY    23  18  81 CALM      30.00S
PINEDALE       CLOUDY    23  19  86 CALM      30.00F
DUBOIS         CLOUDY    28  18  64 W14       29.93R WCI  17
LANDER         FAIR      13   8  81 CALM      29.97F
RIVERTON       FOG       19  17  92 CALM      29.99S VSB 1/2
CASPER         FAIR       9   6  88 CALM      29.99S
DOUGLAS        FAIR      18  16  92 CALM      30.02F

$$
WYZ021-027>030-104>119-170300-
SOUTHERN WYOMING

CITY           SKY/WX    TMP DP  RH WIND       PRES   REMARKS
EVANSTON       CLOUDY    28  19  69 E7        29.98R WCI  21
FORT BRIDGER   FAIR      24  21  88 CALM      30.02R
ROCK SPRINGS   FAIR      21  17  84 S5        30.01R WCI  15
DIXON          FAIR      16  14  92 CALM      30.08R
RAWLINS        FAIR      27  18  69 W6        30.02R WCI  20
SARATOGA       FAIR      19  16  86 CALM      30.02S
LARAMIE        FAIR      20  14  77 NW7       30.01R WCI  11
CHEYENNE       FAIR      30  18  60 S3        30.01S
TORRINGTON     CLOUDY    18  16  92 E10       30.06R WCI   6
PINE BLUFFS    CLOUDY    28  23  80 CALM      30.05S

$$


USA.gov is the U.S. government's official web portal to all federal, state and local government web resources and services.